Find Praetorian SDA-605

NORAD ID: 65568 Int'l Des: 2025-203 Owner: SDA Country: US operational
LEOCIRCULARPOLAR

Aktuelle Ansicht

3D-Globus wird geladen...

Über Praetorian SDA-605

Beschreibung wird geladen...

Nächste Überflüge

Passes for default location (London). Set your location on the main map for personalized predictions.

Höhenverlauf

Loading altitude history...

Zweizeiliger Elementsatz

1 65568U 25203D 26149.59321160 .00000123 00000-0 10143-3 0 9999
2 65568 81.3033 27.9617 0007283 237.5975 122.4477 13.83432336 36125
Epoch: 29. Mai 2026 • Age: 11 hours

Aktueller Status

Höhe 969.1 km
Geschwindigkeit 7.37 km/s
Subsatellitenpunkt 79.24°N, 109.98°W
Startdatum 10. Sept. 2025
Alter 0.7 years
Typ other

Technische Details

Klassifizierung Payload
Masse 300.00 kg
Trockenmasse 300.00 kg
Gesamtmasse 300.00 kg
Länge 1.00 m
Durchmesser 0.60 m
Spannweite 2.00 m
Form Box + panels
Hersteller YORKSS
Bus-Typ S-Class
Phasenstatus In Orbit
Besitzer/Staat SDA/US

Most Searched